Location: Brotte
(47.7561°N, 6.3478°E)
Time: 14:49:27
(UTC+00:00)

Daily predictions for brighter satellites

Satellite Brightness Start Highest point End
(mag) Time Altitude Azimuth Time Altitude Azimuth Time Altitude Azimuth
ATLAS 3B R/B 3.0 19:40:04 10° NW 19:47:07 69° NE 19:54:27 10° SE
RESURS DK-1 2.5 19:48:39 10° S 19:52:41 54° ESE 19:56:46 10° NE
Cosmos 1633 3.0 19:49:32 10° SSE 19:52:57 42° E 19:56:24 10° NNE
OBJECT-B 3.0 19:51:25 10° SSW 19:54:09 26° W 19:56:56 10° NW
IRS-1A Rocket 4.4 19:50:36 10° S 19:56:08 76° WSW 20:01:40 10° NNW
Cosmos 2369 4.0 19:51:59 10° NNW 19:57:38 73° WSW 20:03:14 10° SSE
Cosmos 2151 3.9 19:54:06 10° SSE 19:57:45 29° E 20:01:27 10° NNE
USA 276 2.5 19:55:50 10° WNW 19:58:59 60° N 20:02:06 10° E
Cosmos 1825 3.5 19:55:44 10° SSW 19:59:20 44° WNW 20:02:57 10° N
Cosmos 1980 Rocket 2.2 19:54:05 10° NNW 19:59:45 89° ENE 20:05:24 10° SSE
Cosmos 1437 4.3 19:58:46 10° NNW 20:01:14 29° W 20:03:40 10° SSW
BREEZE-M DEB (TANK) 3.6 19:59:00 10° SSW 20:02:22 43° SE 20:12:34 10° ENE
Cosmos 1933 4.4 19:59:58 10° N 20:03:36 31° ENE 20:07:08 10° SE
Cosmos 1242 Rocket 4.4 20:00:43 10° NNW 20:03:56 31° W 20:07:05 10° SSW
ERS-1 Rocket 4.2 20:00:59 10° ESE 20:05:08 27° ENE 20:09:18 10° N
COSMOS 2406 3.8 19:59:57 10° SW 20:05:35 65° WNW 20:11:18 10° NNE
SPOT 5 4.1 20:02:40 10° ESE 20:06:03 23° ENE 20:09:30 10° N
MetOp-B 4.3 20:01:52 10° SSE 20:07:09 64° ENE 20:12:28 10° N
ARIANE 5 R/B 3.8 20:03:45 10° SE 20:07:36 29° ENE 20:11:26 10° N
Terra 3.5 20:05:06 10° ESE 20:08:32 20° ENE 20:11:58 10° NNE
Cosmos 2322 Rocket 3.4 20:04:38 10° NNW 20:09:35 30° NE 20:14:28 10° ESE
SPOT 3 Rocket 3.6 20:05:16 10° SSE 20:10:29 77° ENE 20:15:44 10° NNW
Gbstr 26 Del rocket 3.0 20:10:03 10° WNW 20:13:46 62° NNE 20:17:42 10° E
Spot 2 Rocket 4.0 20:11:55 11° SE 20:16:40 45° ENE 20:21:32 10° N
Meteor 2-3 Rocket 4.2 20:14:09 10° SSE 20:19:26 43° E 20:24:48 10° NNE
Cosmos 332 Rocket 4.0 20:19:37 10° NNW 20:24:29 61° ENE 20:28:37 14° SE
ISS -3.8 20:22:44 10° WNW 20:26:07 77° SSW 20:28:39 17° ESE
Cosmos 1076 Rocket 3.6 20:22:36 10° S 20:26:56 83° W 20:31:20 10° N
ERS-2 2.9 20:23:31 10° N 20:27:05 54° WNW 20:30:38 10° SSW
Cosmos 1151 Rocket 4.2 20:24:20 10° N 20:28:10 29° ENE 20:31:00 15° SE
USA 234 4.3 20:23:40 10° ENE 20:29:45 42° N 20:35:50 10° WNW
Cosmos 1092 Rocket 4.1 20:25:21 10° S 20:31:26 58° E 20:37:38 10° NNE
Cosmos 2219 Rocket 4.4 20:28:42 10° N 20:31:53 15° NE 20:35:04 10° ENE
Landsat 7 4.3 20:28:41 10° S 20:33:22 59° W 20:38:06 10° NNW
Cosmos 1782 3.5 20:29:49 10° N 20:33:37 38° ENE 20:36:11 18° SE
Cosmos 1538 Rocket 3.9 20:32:11 10° SSW 20:37:25 85° ESE 20:42:38 10° NNE
SL-16 R/B 2.5 20:32:05 10° NNW 20:37:40 55° ENE 20:42:00 17° SE
Meteor 2-19 Rocket 4.4 20:33:40 10° S 20:39:41 75° E 20:45:45 10° NNE
Cosmos 2098 Rocket 3.3 20:40:04 10° SSW 20:43:02 48° WNW 20:46:33 10° N
Cosmos 2026 Rocket 4.1 20:39:33 10° S 20:45:46 60° E 20:51:56 10° NNE
Cosmos 1271 Rocket 2.8 20:43:19 10° N 20:47:19 73° ENE 20:50:02 20° SSE
GP-B 3.1 20:46:42 10° N 20:51:09 68° E 20:54:30 17° S
CZ-2C R/B 3.7 20:46:36 10° NNE 20:51:11 88° W 20:55:38 10° SSW
Nadezhda 4 Rocket 4.5 20:47:02 10° SSW 20:53:07 63° WNW 20:59:21 10° N
Cosmos 1627 Rocket 4.5 20:52:56 10° S 20:59:16 78° E 21:05:34 10° NNE
ATLAS 5 CENTAUR R/B 4.2 20:57:26 10° NNW 21:01:15 20° NNE 21:05:33 10° ENE
Cosmos 304 Rocket 3.9 20:56:58 10° NNW 21:01:46 69° WSW 21:05:02 20° S
Okean 3 Rocket 3.8 21:04:43 23° SSE 21:07:20 54° E 21:11:45 10° NNE
SPOT 1/Viking Rocket 4.4 21:02:29 10° S 21:07:26 47° W 21:12:28 10° NNW
Cosmos 2082 Rocket 3.7 21:05:53 10° WSW 21:11:08 39° NW 21:16:28 10° NNE
Cosmos 220 Rocket 4.2 21:09:45 10° NNW 21:14:04 62° ENE 21:16:06 30° SE
Cosmos 1428 Rocket 4.5 21:09:38 10° S 21:15:48 84° W 21:21:57 10° N
Resurs 01 Rocket 3.9 21:14:36 10° SW 21:17:49 19° W 21:21:03 10° NW
BREEZE-M DEB (TANK) 3.4 21:15:28 10° W 21:18:49 45° SSW 21:23:01 23° SE
Cosmos 2360 Rocket 2.5 21:16:55 10° NNW 21:22:29 57° ENE 21:25:36 26° SE
Cosmos 923 Rocket 4.0 21:18:32 10° SSW 21:23:52 87° WNW 21:29:16 10° NNE
Meteor 1-10 Rocket 4.5 21:19:53 10° N 21:25:21 54° ENE 21:28:05 28° SE
Cosmos 1408 Rocket 4.0 21:24:14 32° SE 21:25:38 44° E 21:29:47 10° NNE
Cosmos 1553 Rocket 3.9 21:20:43 10° N 21:26:49 81° E 21:30:29 26° SSE
Cosmos 2333 Rocket 3.3 21:24:13 10° NNW 21:29:25 35° NE 21:32:47 19° ESE
ATLAS 2AS CENTAUR R/B 4.3 21:23:09 10° WSW 21:30:33 41° NNW 21:37:42 10° NE
Meteor 2-14 Rocket 4.4 21:27:36 22° S 21:31:44 73° E 21:37:53 10° NNE
Cosmos 2266 Rocket 4.4 21:29:47 27° SE 21:32:34 43° E 21:38:23 10° NNE
Cosmos 2056 Rocket 3.5 21:29:43 10° NNW 21:35:07 79° ENE 21:37:36 33° SSE
USA 276 2.4 21:32:06 10° WNW 21:35:05 47° SSW 21:35:05 47° SSW
Cosmos 1812 2.6 21:32:08 10° N 21:36:00 86° W 21:37:16 41° S
ATLAS 3B R/B 4.0 21:31:16 10° NW 21:37:28 33° WSW 21:42:22 16° SSW
USA 267 3.4 21:31:15 10° ENE 21:37:32 47° SE 21:43:47 10° SSW
Cosmos 2228 Rocket 4.2 21:38:47 10° N 21:42:42 31° ENE 21:43:53 27° E
Cosmos 1980 Rocket 4.5 21:39:48 10° WNW 21:42:55 15° W 21:46:04 10° SW
ERS-1 Rocket 3.7 21:40:38 21° SSW 21:43:41 47° W 21:48:33 10° NNW
Cosmos 2084 3.3 21:42:47 43° S 21:43:46 55° SE 21:47:52 10° NE
SPOT 5 3.5 21:41:38 22° SSW 21:43:55 41° W 21:48:05 10° NNW
ARIANE 5 R/B 3.9 21:41:12 18° SSW 21:43:57 34° W 21:48:03 10° NNW
SL-27 R/B 2.6 21:44:33 52° ESE 21:44:42 53° ESE 21:48:13 10° NNE
Terra 2.2 21:43:31 28° S 21:45:52 59° W 21:50:36 10° NNW
NOSS 2-1 (C) 3.0 21:46:53 52° E 21:46:53 52° E 21:49:47 10° NE
Cosmos 1655 Rocket 4.1 21:43:54 29° SSE 21:47:10 63° E 21:53:29 10° NNE
Cosmos 1515 Rocket 3.5 21:43:51 10° N 21:48:20 81° E 21:49:44 43° SSE
Cosmos 2237 Rocket 4.4 21:48:23 10° N 21:52:14 18° NE 21:56:06 10° E
Cosmos 2322 Rocket 2.6 21:48:26 10° NW 21:53:56 55° WSW 21:56:28 30° S
NOSS 2-1 (D) 2.7 21:54:20 68° E 21:54:20 68° E 21:57:31 10° NE
Cosmos 1371 Rocket 4.2 21:51:08 10° NNW 21:56:28 64° WSW 21:58:42 34° S
S3M 4.0 21:50:04 10° N 21:56:30 90° W 21:59:44 32° S
Cosmos 2112 Rocket 4.3 21:54:10 15° SSW 21:58:36 70° WNW 22:03:53 10° NNE
H-2A R/B 3.4 21:54:58 10° NNE 21:59:10 86° WNW 22:00:38 41° SSW
Cosmos 1680 Rocket 4.0 21:54:17 10° SW 21:59:27 59° WNW 22:04:40 10° NNE
Gbstr 26 Del rocket 3.5 21:56:52 10° WNW 22:00:25 36° SW 22:00:26 36° SW
ISS -1.3 22:00:26 10° W 22:01:36 14° WSW 22:01:36 14° WSW
Cosmos 1862 3.7 22:02:44 35° SW 22:04:13 59° WNW 22:08:09 10° N
COSMOS 2455 3.3 22:05:55 36° SE 22:07:06 40° ESE 22:12:40 10° NE
USA 234 3.4 22:07:28 20° ESE 22:12:16 73° NNE 22:18:49 10° NW
ALOS 2 3.7 22:13:01 29° E 22:14:04 33° ENE 22:18:00 10° N
Cosmos 2219 Rocket 2.4 22:11:30 10° NNW 22:17:04 61° ENE 22:19:12 36° ESE
COBE Rocket 3.7 22:16:53 51° SE 22:18:00 75° ENE 22:22:41 10° N
IRIDIUM 106 4.3 22:14:58 10° N 22:20:14 78° E 22:21:45 47° SSE
SL-16 R/B 3.7 22:16:47 10° NW 22:21:25 27° WSW 22:23:52 20° SW
Cosmos 2333 4.1 22:17:49 10° NNW 22:23:27 89° WSW 22:25:16 45° SSE
COSMOS 2428 3.0 22:21:51 10° NNW 22:27:32 61° ENE 22:29:40 37° ESE
Cosmos 1805 Rocket 3.5 22:32:29 63° SE 22:33:00 70° E 22:37:26 10° NNE
Cosmos 292 Rocket 4.1 22:29:19 10° NNW 22:33:56 52° WSW 22:34:52 44° SW
Cosmos 1048 Rocket 4.1 22:36:20 50° SE 22:36:58 53° ESE 22:41:57 10° NNE
Cosmos 1515 4.0 22:34:07 10° N 22:37:44 52° ENE 22:37:44 52° ENE
CZ-3B R/B 2.1 22:35:00 10° WNW 22:43:42 85° NNE 22:44:25 58° ESE
Cosmos 1500 Rocket 4.1 22:43:12 40° SW 22:44:21 52° WNW 22:48:42 10° N
ATLAS 5 CENTAUR R/B 2.6 22:41:29 10° NW 22:46:51 60° NE 22:49:59 29° ESE
Meteor 1-27 Rocket 4.1 22:43:07 10° NNW 22:48:35 54° W 22:50:25 38° SSW
NOSS 2-1 (E) 4.4 22:51:16 26° W 22:52:27 35° NW 22:55:45 10° NNE
NOSS 3-1 (C) 4.1 22:47:47 10° NW 22:55:13 68° SW 22:58:46 38° SSE
Cosmos 972 Rocket 4.1 22:55:32 43° SW 22:57:16 74° WNW 23:02:20 10° NNE
NOSS 0 Rocket 4.2 22:51:43 10° NNW 22:57:56 63° ENE 23:00:28 36° SE
Cosmos 1666 4.4 23:02:00 24° ENE 23:02:00 24° ENE 23:04:38 10° NE
Cosmos 2285 Rocket 4.0 22:56:42 10° NNW 23:02:57 68° WSW 23:04:48 46° S
Thor Agena Rocket 4.4 23:01:05 10° NNE 23:05:38 33° E 23:06:01 32° ESE
Cosmos 2360 Rocket 3.5 23:01:33 10° NW 23:06:06 26° WSW 23:07:21 24° WSW
Meteor 1-20 Rocket 4.2 23:05:25 49° SSW 23:07:00 81° WNW 23:12:43 10° N
Cosmos 1452 Rocket 3.8 23:02:34 10° NNW 23:07:39 51° WSW 23:08:29 46° SW
USA 229 DEB 3.8 23:01:35 10° NW 23:08:55 81° SW 23:12:08 39° SSE
USA 229 3.8 23:01:40 10° NW 23:09:01 82° SW 23:12:15 39° SSE
Cosmos 1470 Rocket 4.3 23:11:57 38° E 23:11:57 38° E 23:15:54 10° NNE
COSMOS 2487 3.4 23:13:20 42° NW 23:13:20 42° NW 23:16:20 10° N
Cosmos 2333 Rocket 2.7 23:08:28 10° NW 23:13:49 44° WSW 23:14:46 41° SW
Cosmos 1980 4.1 23:08:18 10° NNW 23:13:54 56° ENE 23:16:00 36° ESE
Sich 1 3.4 23:14:38 52° WSW 23:15:10 56° WNW 23:19:27 10° N
Cosmos 2084 Rocket 4.3 23:11:51 10° NNW 23:15:54 46° NE 23:17:04 36° E
Cosmos 1633 Rocket 2.9 23:17:04 75° ESE 23:17:10 75° E 23:21:32 10° NNE
APEX 4.4 23:16:51 51° SSE 23:17:48 57° ESE 23:24:10 10° NE
Cosmos 1340 Rocket 4.4 23:19:57 24° E 23:19:57 24° E 23:22:43 10° NE
Cosmos 1666 Rocket 3.4 23:20:10 78° SW 23:20:24 84° W 23:24:53 10° N
USA 267 3.5 23:14:14 10° NE 23:20:45 69° NNW 23:27:14 10° WSW
Cosmos 2228 Rocket 4.4 23:17:04 10° NNW 23:20:51 28° W 23:21:21 27° WSW
SL-08 R/B 4.4 23:21:43 50° S 23:23:30 82° E 23:29:41 10° N
Cosmos 2322 4.4 23:19:45 10° NW 23:25:01 39° WSW 23:25:54 37° SW
PSLV R/B 4.4 23:20:50 10° NNE 23:25:22 41° E 23:25:38 41° ESE
NOSS 3-1 (A) 4.1 23:21:53 10° NW 23:29:20 67° SW 23:32:41 40° SSE
Meteor 1-18 Rocket 4.3 23:25:09 10° NNW 23:31:01 75° W 23:32:22 53° SSW
Cosmos 2297 Rocket 2.7 23:32:09 41° SE 23:32:46 42° ESE 23:38:04 10° NE
CZ-4C R/B 4.3 23:27:13 10° NW 23:33:17 34° NNE 23:40:24 10° E
Cosmos 1110 Rocket 4.2 23:29:44 10° NNW 23:34:58 57° WSW 23:35:37 53° SW
Cosmos 2237 Rocket 2.2 23:31:35 10° NNW 23:37:18 77° ENE 23:38:58 47° SE
Okean 1 4.0 23:33:47 10° NNW 23:37:21 43° W 23:37:21 43° W
Cosmos 1331 Rocket 4.1 23:36:14 10° NNW 23:41:21 55° WSW 23:41:53 52° SW
Cosmos 1862 Rocket 3.6 23:38:42 10° NNW 23:43:02 63° W 23:43:03 63° W
Cosmos 1500 3.7 23:44:24 54° WNW 23:44:24 54° WNW 23:47:59 10° N
Cosmos 2227 Rocket 2.8 23:43:37 38° SE 23:44:18 39° ESE 23:49:31 10° NE
Cosmos 1745 Rocket 3.9 23:43:09 50° S 23:44:55 83° E 23:51:14 10° N
Meteor 1-11 Rocket 4.5 23:46:25 34° ESE 23:47:38 38° E 23:52:43 10° NNE
ALOS 2 3.9 23:50:25 28° W 23:50:25 28° W 23:54:13 10° NW
COSMOS 2455 3.7 23:49:00 19° WSW 23:52:59 45° NW 23:58:47 10° NNE
MINOTAUR IV R/B 4.4 23:49:45 10° NNW 23:54:20 82° WSW 23:54:29 80° SSW
